Regional Weather Roundup
Issued by NWS

Home | Current Version | Previous Version | Text Only | Print | Product List | Glossary On
Versions: 1 2 3 4 5 6 7 8 9 10 11 12 13 14 15 16 17 18 19 20 21 22 23 24 25 26 27 28 29 30 31 32 33 34 35 36 37 38 39 40 41 42 43 44 45 46 47 48 49 50
000
ASCA44 KEWX 130420
RWRMX

LATIN AMERICA AND CARIBBEAN REGIONAL WEATHER ROUNDUP
NATIONAL WEATHER SERVICE AUSTIN/SAN ANTONIO TX
1100 PM CDT SAT JUL 12 2014

NOTE: "FAIR" INDICATED FEW OR NO CLOUDS BELOW 12,000 FEET WITH NO
SIGNIFICANT WEATHER AND/OR OBSTRUCTIONS TO VISIBILITY.

BAJA CALIFORNIA

CITY           SKY/WX    TMP DP  RH WIND       PRES   REMARKS
LA PAZ         MOCLDY    84  70  61 SW9       29.90R
MEXICALI       CLEAR     97  43  15 S2        29.76R HX  92
S.J. DEL CABO  PTCLDY    82  73  74 NE3       29.92R
TIJUANA        CLEAR     66  59  77 NW10      29.98R

NORTHWESTERN MEXICO

CITY           SKY/WX    TMP DP  RH WIND       PRES   REMARKS
CULIACAN       RAIN      75  75 100 CALM      29.94R
HERMOSILLO     CLOUDY    88  75  66 S6        29.87R HX  97
LOS MOCHIS       N/A    N/A N/A N/A MISG        N/A
OBREGON          N/A    N/A N/A N/A MISG        N/A

NORTHEASTERN MEXICO

CITY           SKY/WX    TMP DP  RH WIND       PRES   REMARKS
CHIHUAHUA      CLOUDY    79  52  38 W7        30.18R
MONTERREY      CLEAR     81  66  61 E20       30.05R
REYNOSA        CLEAR     77  70  78 SE6       30.06R
TORREON        MOCLDY    82  54  36 NE7       30.09R
CD. VICTORIA   PTCLDY    75  72  88 SE6       30.08R

WESTERN MEXICO

CITY           SKY/WX    TMP DP  RH WIND       PRES   REMARKS
AGUASCALIENTES MOCLDY    61  55  82 NE9       30.31S
DEL BAJIO      CLEAR     64  54  68 N6        30.31R
GUADALAJARA    MOCLDY    64  61  88 E5        30.21R
MAZATLAN       CLOUDY    82  70  65 SW7       29.89R
P. VALLARTA    CLOUDY    77  70  78 NE6       29.88R
ZACATECAS      MOCLDY    61  45  55 SE12      30.35R

CENTRAL MEXICO

CITY           SKY/WX    TMP DP  RH WIND       PRES   REMARKS
MEXICO CITY    MOCLDY    63  46  55 NW6       30.38R
MORELIA        MOCLDY    57  57 100 CALM      30.27R FOG
PUEBLA         MOCLDY    57  50  77 N14       30.40R
QUERETARO      PTCLDY    63  57  82 NE7       30.38R
S. LUIS POTOSI PTCLDY    61  54  77 SE5       30.34R
TAMPICO        PTCLDY    79  75  89 CALM      30.06R
TOLUCA         MOCLDY    55  43  62 E12       30.43R

SOUTHERN MEXICO

CITY           SKY/WX    TMP DP  RH WIND       PRES   REMARKS
ACAPULCO       PTCLDY    86  77  74 N6        29.85R HX  97
OAXACA         PTCLDY    64  48  55 N8        30.31
VERACRUZ       CLEAR     75  72  88 N3        30.06R

YUCATAN PENINSULA

CITY           SKY/WX    TMP DP  RH WIND       PRES   REMARKS
CAMPECHE       CLOUDY    81  72  74 E6        30.01S
CANCUN         MOCLDY    81  75  83 E3        30.05R
COZUMEL        PTCLDY    77  75  94 E6        30.06R
MERIDA         PTCLDY    77  68  73 E5        30.05R
TAPACHULA      MOCLDY    84  79  84 CALM      29.89R HX  96
VILLAHERMOSA   MOCLDY    73  70  88 E13       30.05F

CENTRAL AMERICA

CITY           SKY/WX    TMP DP  RH WIND       PRES   REMARKS

CARIBBEAN

CITY           SKY/WX    TMP DP  RH WIND       PRES   REMARKS
ARUBA          PTCLDY    81  75  83 E18       29.94S
CURACAO        PTCLDY    81  75  83 SE13      30.00S
KINGSTON       PTCLDY    86  73  66 SE15      29.97S HX  93
NASSAU         PTCLDY    82  72  69 SE9       30.13R
SAN JUAN       PTCLDY    81  75  83 E6        30.08F
ST. CROIX      PTCLDY    79  72  78 N5        30.08F
ST. THOMAS     CLOUDY    82  73  74 E6        30.07F

$$




USA.gov is the U.S. government's official web portal to all federal, state and local government web resources and services.